TimeEDT,TemperatureF,Dew PointF,Humidity,Sea Level PressureIn,VisibilityMPH,Wind Direction,Wind SpeedMPH,Gust SpeedMPH,PrecipitationIn,Events,Conditions,WindDirDegrees,DateUTC
12:19 AM,48.2,46.4,93,29.86,7.0,ESE,4.6,-,0.01,Rain,Light Rain,110,2013-04-11 04:19:00
12:53 AM,48.0,46.0,93,29.87,10.0,ESE,3.5,-,0.01,,Overcast,110,2013-04-11 04:53:00
1:53 AM,48.0,46.9,96,29.86,7.0,Calm,Calm,-,0.00,Rain,Light Rain,0,2013-04-11 05:53:00
2:53 AM,48.0,46.9,96,29.82,9.0,Calm,Calm,-,0.01,,Overcast,0,2013-04-11 06:53:00
3:03 AM,48.2,46.4,93,29.83,10.0,Calm,Calm,-,N/A,,Overcast,0,2013-04-11 07:03:00
3:53 AM,48.0,46.9,96,29.83,10.0,North,3.5,-,N/A,,Overcast,350,2013-04-11 07:53:00
4:50 AM,46.4,46.4,100,29.84,3.0,NNE,9.2,-,N/A,,Overcast,30,2013-04-11 08:50:00
4:53 AM,46.9,46.0,97,29.84,3.0,NE,6.9,-,N/A,,Overcast,40,2013-04-11 08:53:00
5:06 AM,46.4,46.4,100,29.84,2.5,NE,5.8,-,N/A,,Overcast,40,2013-04-11 09:06:00
5:13 AM,46.4,46.4,100,29.84,3.0,NE,4.6,-,N/A,,Overcast,50,2013-04-11 09:13:00
5:53 AM,46.0,46.0,100,29.87,4.0,NNE,3.5,-,N/A,,Overcast,20,2013-04-11 09:53:00
6:07 AM,46.4,46.4,100,29.88,2.0,Calm,Calm,-,N/A,,Overcast,0,2013-04-11 10:07:00
6:15 AM,46.4,46.4,100,29.89,1.8,Calm,Calm,-,N/A,,Overcast,0,2013-04-11 10:15:00
6:27 AM,46.4,46.4,100,29.90,2.5,Calm,Calm,-,N/A,,Overcast,0,2013-04-11 10:27:00
6:45 AM,46.4,46.4,100,29.91,1.5,NNE,4.6,-,N/A,,Overcast,30,2013-04-11 10:45:00
6:53 AM,46.9,46.9,100,29.92,1.2,Variable,4.6,-,N/A,,Overcast,0,2013-04-11 10:53:00
7:19 AM,48.2,46.4,93,29.93,3.0,North,5.8,-,N/A,,Overcast,10,2013-04-11 11:19:00
7:28 AM,48.2,46.4,93,29.94,6.0,North,8.1,-,N/A,,Overcast,360,2013-04-11 11:28:00
7:53 AM,48.0,46.0,93,29.94,5.0,North,5.8,-,N/A,,Overcast,10,2013-04-11 11:53:00
8:53 AM,46.9,45.0,93,29.93,7.0,ENE,8.1,-,N/A,,Overcast,60,2013-04-11 12:53:00
9:53 AM,46.0,44.1,93,29.99,6.0,ENE,8.1,-,N/A,,Overcast,70,2013-04-11 13:53:00
10:08 AM,46.4,42.8,87,29.99,10.0,ENE,6.9,-,N/A,,Overcast,60,2013-04-11 14:08:00
10:51 AM,46.4,42.8,87,30.00,5.0,ENE,8.1,-,N/A,,Overcast,70,2013-04-11 14:51:00
10:53 AM,46.0,43.0,89,30.00,6.0,ENE,6.9,-,N/A,,Overcast,60,2013-04-11 14:53:00
11:02 AM,46.4,42.8,87,30.01,5.0,ENE,8.1,-,N/A,,Overcast,60,2013-04-11 15:02:00
11:17 AM,46.4,42.8,87,30.01,5.0,ENE,9.2,-,N/A,,Overcast,70,2013-04-11 15:17:00
11:42 AM,46.4,42.8,87,30.03,9.0,ENE,4.6,-,N/A,,Overcast,60,2013-04-11 15:42:00
11:49 AM,46.4,42.8,87,30.03,9.0,NNE,4.6,-,N/A,,Overcast,30,2013-04-11 15:49:00
11:53 AM,46.0,42.1,86,30.04,10.0,Variable,5.8,-,N/A,,Overcast,0,2013-04-11 15:53:00
12:34 PM,50.0,39.2,66,30.02,10.0,NE,11.5,16.1,N/A,,Overcast,50,2013-04-11 16:34:00
1:53 PM,50.0,39.0,66,30.03,10.0,NE,8.1,-,N/A,,Overcast,40,2013-04-11 17:53:00
2:33 PM,50.0,39.2,66,30.02,10.0,ENE,5.8,-,N/A,,Overcast,60,2013-04-11 18:33:00
2:53 PM,52.0,37.9,59,30.02,10.0,North,4.6,-,N/A,,Overcast,360,2013-04-11 18:53:00
3:53 PM,53.1,37.9,57,30.01,10.0,ENE,6.9,-,N/A,,Mostly Cloudy,70,2013-04-11 19:53:00
4:53 PM,52.0,37.9,59,30.02,10.0,NNE,5.8,-,N/A,,Overcast,30,2013-04-11 20:53:00
5:53 PM,51.1,37.9,61,30.04,10.0,NNE,6.9,-,N/A,,Mostly Cloudy,20,2013-04-11 21:53:00
6:53 PM,48.0,37.9,68,30.07,10.0,NE,4.6,-,N/A,,Overcast,50,2013-04-11 22:53:00
7:53 PM,46.9,35.1,63,30.07,10.0,ENE,6.9,-,N/A,,Overcast,60,2013-04-11 23:53:00
8:53 PM,46.9,35.1,63,30.09,10.0,NNE,3.5,-,N/A,,Overcast,30,2013-04-12 00:53:00
9:53 PM,46.0,36.0,68,30.12,10.0,NNE,3.5,-,N/A,,Overcast,30,2013-04-12 01:53:00
10:53 PM,45.0,37.9,76,30.13,10.0,NNE,4.6,-,0.01,Rain,Light Rain,30,2013-04-12 02:53:00
11:53 PM,43.0,39.0,86,30.14,10.0,NE,3.5,-,0.02,,Overcast,40,2013-04-12 03:53:00